Temp
16 17 17 18 18 18 19 19 20 20 21 22 23 23 23 24 24 25 26 26 26 26 25 24 23 24 24 24 25 21 19 19 20 24 29 30 29 29 27 25 25 24 23 23 23
16 17 17 18 18 18 19 19 20 20 21 21 22 23 23 24 25 26 26 26 26 26 25 23 25 25 24 26 26 20 18 20 23 21 28 29 29 29 28 25 24 24 23 23 23
16 16 17 17 18 18 18 19 19 20 21 21 21 22 23 24 25 26 27 27 26 26 25 24 25 25 24 26 26 18 19 18 20 21 21 29 28 28 28 25 24 23 24 24 23
16 17 17 17 18 18 18 19 19 20 20 21 22 22 23 23 24 26 26 27 26 26 25 25 25 25 23 24 27 24 21 19 20 22 27 28 28 27 28 25 24 24 24 24 23
17 17 18 18 18 18 18 19 19 20 20 21 21 22 22 23 25 26 26 27 26 26 26 25 26 26 24 28 28 27 27 25 27 28 29 28 27 28 27 25 25 24 24 24 24
17 18 18 18 18 19 19 19 19 20 20 21 21 21 22 22 25 26 26 26 26 26 26 25 26 28 27 28 28 27 27 26 27 28 28 28 26 28 27 25 25 24 24 24 24
18 18 19 19 19 19 19 19 20 20 20 20 21 21 21 24 26 25 25 26 26 25 25 26 27 28 29 29 28 27 24 24 24 28 25 27 23 27 27 26 25 25 25 25 25
18 18 19 19 19 19 20 20 20 20 20 20 21 21 22 25 25 25 26 26 26 26 26 27 27 28 29 29 29 27 24 22 23 22 26 27 21 23 26 26 25 25 25 25 25
18 19 19 19 19 20 20 20 20 20 20 21 20 20 23 25 26 26 26 26 26 27 27 27 28 28 28 26 26 27 24 23 20 22 26 28 23 24 27 26 25 25 26 26 26
18 19 19 20 20 20 20 21 21 21 21 20 21 20 24 26 26 25 25 26 26 27 27 28 28 25 25 24 24 26 26 26 25 27 25 27 25 25 27 26 25 25 26 26 26
18 19 19 20 20 20 21 21 21 21 21 22 23 24 26 25 25 25 25 26 26 26 24 28 24 23 25 26 28 29 30 26 27 27 27 25 26 25 27 26 25 25 26 26 26
18 19 19 20 20 20 21 21 21 21 21 23 25 25 25 25 25 25 26 26 26 23 25 24 24 26 28 29 29 29 28 28 29 29 27 26 27 25 27 27 25 25 26 26 26
18 19 19 20 20 21 21 21 21 22 21 24 25 25 25 25 25 26 26 26 25 24 24 23 25 29 29 28 28 28 27 28 29 30 29 28 25 26 27 28 26 26 27 27 26
18 18 19 20 20 20 21 21 21 21 18 24 25 25 26 26 25 27 27 26 26 23 24 24 26 27 28 28 28 26 30 31 27 27 24 29 25 25 26 27 26 26 27 27 27
18 18 18 19 20 21 21 21 21 21 20 26 27 26 26 26 27 27 27 27 24 24 25 23 25 26 26 28 29 28 30 30 30 26 25 27 26 26 27 27 25 27 27 27 27
17 18 18 19 19 21 21 21 21 19 21 26 27 25 25 26 26 27 27 26 26 25 24 24 27 26 26 29 29 30 30 29 29 25 24 26 27 27 28 28 27 27 27 27 28
18 18 19 19 20 21 21 21 19 19 26 24 23 24 23 24 25 27 25 23 22 22 21 23 24 26 27 26 28 28 26 25 25 24 23 27 26 29 29 30 28 27 27 27 27
18 19 19 20 20 20 21 19 19 25 23 24 23 23 23 25 25 25 24 22 24 23 21 21 21 24 27 25 25 26 26 25 23 24 25 27 26 29 31 32 29 28 28 27 27
19 19 19 20 21 21 21 19 21 22 23 23 23 23 23 24 24 24 23 22 23 21 19 18 20 24 27 27 27 26 26 27 25 26 27 28 30 31 30 30 30 29 28 27 27
18 19 19 20 21 21 20 18 22 24 23 22 21 22 20 21 21 21 22 22 21 22 22 20 18 22 25 27 27 26 28 26 26 24 24 25 27 28 29 30 30 30 29 28 28
18 18 22 21 22 22 18 21 24 23 22 21 20 20 20 20 20 20 20 22 21 21 21 19 18 19 22 22 23 25 26 27 27 25 25 24 25 28 29 31 30 30 29 29 28
18 18 22 21 21 22 20 23 23 23 23 23 22 21 20 20 19 19 19 20 22 22 20 20 18 17 20 24 25 25 25 26 26 23 23 24 27 32 29 27 32 30 29 28 27
16 19 22 22 19 20 23 24 23 23 22 21 21 21 20 18 17 19 20 22 22 21 19 19 16 15 18 21 24 25 23 24 26 24 25 23 25 29 27 27 26 24 29 28 28
15 18 22 22 22 22 21 21 22 22 22 21 20 20 19 18 19 17 19 21 22 21 20 19 17 16 16 18 20 21 23 24 25 23 25 26 27 27 27 26 27 22 21 21 21
16 19 19 18 20 20 20 20 21 21 22 21 20 20 19 17 16 16 18 18 19 20 19 17 15 18 19 20 21 21 22 24 24 24 26 26 26 28 25 24 22 19 19 18 17
17 17 17 18 20 21 19 20 21 21 19 19 18 19 18 16 16 14 15 15 15 17 16 16 15 16 17 19 21 21 22 24 25 25 26 27 25 23 22 18 16 18 18 17 16
15 15 16 18 19 19 20 21 20 20 20 20 18 17 17 16 16 16 17 17 16 15 14 14 14 14 14 17 19 19 21 20 22 25 25 24 24 22 20 18 17 19 20 17 16
Height
1524 1522 1521 1519 1518 1516 1515 1513 1512 1511 1509 1508 1507 1506 1505 1504 1505 1504 1503 1503 1504 1504 1506 1507 1508 1506 1503 1504 1506 1514 1527 1527 1530 1509 1494 1490 1494 1499 1503 1510 1512 1515 1522 1527 1534
1523 1522 1520 1518 1516 1515 1513 1512 1511 1509 1508 1507 1506 1505 1503 1502 1502 1501 1502 1501 1502 1504 1505 1506 1509 1507 1507 1501 1501 1509 1528 1527 1511 1509 1496 1495 1497 1500 1506 1512 1519 1523 1528 1531 1536
1523 1521 1519 1517 1516 1514 1512 1511 1509 1508 1506 1505 1504 1503 1502 1502 1501 1498 1498 1500 1500 1503 1504 1506 1507 1506 1504 1501 1499 1506 1525 1519 1508 1507 1503 1496 1500 1501 1504 1514 1519 1522 1528 1531 1535
1522 1520 1519 1517 1515 1513 1511 1510 1508 1506 1505 1503 1502 1501 1501 1502 1505 1497 1498 1499 1500 1501 1504 1505 1505 1504 1503 1502 1499 1508 1515 1512 1510 1499 1498 1498 1501 1503 1505 1514 1518 1524 1528 1532 1534
1522 1520 1518 1516 1514 1512 1510 1509 1507 1506 1504 1502 1501 1501 1501 1502 1498 1497 1498 1499 1499 1500 1502 1504 1504 1503 1505 1496 1494 1499 1505 1506 1499 1498 1497 1500 1504 1504 1510 1515 1521 1526 1529 1532 1535
1521 1519 1517 1515 1513 1511 1509 1508 1506 1505 1503 1501 1501 1500 1500 1502 1499 1498 1498 1498 1498 1498 1500 1501 1502 1500 1500 1496 1493 1492 1495 1501 1498 1498 1497 1500 1505 1507 1513 1516 1523 1528 1529 1532 1535
1521 1518 1516 1515 1513 1511 1509 1507 1506 1504 1503 1501 1501 1500 1499 1496 1497 1499 1496 1497 1497 1497 1498 1498 1498 1500 1498 1495 1493 1494 1502 1500 1501 1499 1504 1499 1512 1511 1513 1517 1522 1528 1529 1531 1534
1521 1518 1516 1514 1512 1510 1508 1506 1505 1504 1503 1502 1501 1500 1498 1497 1497 1497 1497 1497 1497 1497 1498 1497 1497 1497 1496 1496 1493 1495 1504 1519 1511 1502 1505 1500 1527 1514 1514 1516 1521 1527 1529 1530 1534
1521 1519 1516 1514 1512 1510 1508 1506 1505 1504 1503 1503 1503 1502 1499 1497 1497 1497 1497 1497 1497 1497 1496 1496 1497 1496 1496 1498 1501 1495 1512 1513 1519 1500 1502 1501 1518 1510 1510 1514 1518 1522 1525 1528 1531
1521 1518 1516 1514 1512 1510 1509 1506 1505 1504 1504 1503 1503 1506 1498 1497 1496 1496 1496 1496 1496 1495 1495 1496 1496 1498 1498 1503 1521 1505 1506 1505 1506 1498 1504 1501 1506 1505 1507 1511 1516 1519 1521 1525 1529
1520 1518 1516 1514 1513 1511 1510 1506 1509 1507 1505 1503 1502 1500 1497 1497 1497 1496 1495 1495 1495 1495 1497 1494 1502 1509 1499 1494 1488 1485 1486 1500 1494 1492 1495 1495 1499 1500 1502 1508 1512 1515 1517 1521 1526
1520 1518 1516 1514 1514 1512 1511 1511 1513 1514 1507 1499 1498 1498 1497 1497 1496 1494 1495 1497 1495 1499 1496 1500 1503 1492 1489 1486 1486 1485 1489 1488 1480 1479 1491 1492 1496 1497 1496 1499 1505 1511 1512 1516 1522
1521 1519 1517 1515 1514 1513 1513 1514 1513 1512 1510 1499 1497 1497 1498 1497 1494 1493 1493 1494 1496 1499 1499 1505 1495 1489 1487 1487 1487 1484 1490 1485 1486 1484 1479 1485 1498 1496 1492 1493 1501 1505 1507 1511 1516
1522 1520 1518 1515 1516 1513 1514 1514 1513 1511 1517 1500 1496 1498 1496 1493 1493 1489 1489 1494 1493 1499 1498 1498 1491 1488 1487 1486 1484 1496 1472 1471 1484 1497 1520 1472 1514 1491 1486 1487 1491 1498 1501 1505 1510
1522 1520 1518 1516 1515 1514 1515 1513 1512 1512 1530 1495 1493 1494 1493 1493 1490 1489 1488 1490 1494 1494 1495 1500 1494 1492 1489 1484 1478 1483 1468 1471 1477 1488 1497 1483 1498 1478 1473 1483 1486 1489 1495 1501 1505
1522 1520 1519 1517 1515 1515 1514 1512 1512 1523 1524 1495 1492 1494 1494 1491 1489 1486 1486 1487 1488 1491 1490 1492 1487 1486 1483 1475 1472 1471 1469 1469 1469 1485 1512 1486 1488 1476 1473 1469 1478 1483 1487 1493 1499
1521 1520 1518 1517 1515 1515 1514 1512 1522 1531 1492 1502 1501 1497 1497 1494 1489 1485 1488 1492 1498 1505 1506 1491 1487 1480 1479 1482 1470 1471 1481 1503 1507 1509 1511 1475 1484 1465 1449 1450 1461 1469 1473 1482 1490
1519 1518 1517 1515 1515 1515 1514 1515 1526 1498 1504 1500 1501 1499 1500 1490 1487 1488 1492 1497 1487 1489 1498 1503 1505 1482 1473 1476 1481 1474 1479 1497 1525 1515 1500 1468 1484 1455 1436 1436 1445 1455 1463 1471 1482
1517 1516 1514 1514 1514 1516 1516 1522 1513 1506 1506 1509 1505 1503 1500 1494 1496 1492 1494 1498 1493 1496 1515 1513 1503 1477 1467 1468 1470 1470 1478 1464 1483 1477 1486 1467 1452 1436 1433 1435 1441 1449 1459 1467 1474
1516 1515 1510 1510 1515 1516 1517 1519 1507 1504 1509 1510 1516 1508 1516 1508 1507 1504 1501 1495 1499 1499 1499 1501 1511 1483 1466 1462 1459 1463 1456 1479 1470 1503 1506 1483 1469 1467 1446 1436 1433 1438 1450 1458 1467
1516 1514 1507 1512 1514 1515 1520 1509 1501 1504 1508 1513 1516 1516 1515 1513 1511 1512 1509 1500 1498 1498 1497 1498 1502 1498 1476 1473 1472 1464 1462 1459 1460 1467 1488 1498 1480 1439 1438 1431 1430 1433 1442 1449 1458
1518 1515 1509 1511 1513 1508 1509 1500 1504 1505 1506 1509 1510 1512 1514 1513 1514 1516 1514 1506 1500 1498 1500 1497 1501 1506 1486 1461 1456 1455 1457 1452 1466 1482 1471 1473 1460 1423 1434 1437 1430 1435 1433 1442 1446
1517 1513 1509 1509 1514 1508 1502 1499 1501 1505 1507 1512 1514 1514 1514 1516 1522 1512 1508 1503 1500 1498 1499 1497 1508 1516 1497 1467 1451 1454 1456 1453 1441 1451 1466 1486 1467 1424 1424 1433 1441 1448 1436 1440 1447
1519 1513 1506 1507 1505 1505 1505 1504 1503 1502 1506 1509 1513 1514 1513 1513 1509 1512 1509 1504 1500 1497 1498 1499 1501 1511 1515 1493 1481 1476 1462 1452 1449 1457 1458 1455 1451 1435 1434 1431 1441 1443 1454 1455 1455
1521 1514 1515 1511 1508 1507 1507 1507 1508 1506 1505 1508 1511 1510 1512 1518 1515 1515 1508 1505 1500 1501 1500 1501 1509 1499 1489 1476 1476 1472 1463 1453 1455 1448 1446 1442 1443 1431 1429 1427 1446 1450 1447 1475 1464
1523 1522 1517 1514 1510 1507 1506 1506 1505 1504 1508 1511 1513 1512 1512 1518 1517 1519 1514 1514 1512 1502 1505 1501 1507 1498 1491 1476 1474 1469 1460 1448 1443 1437 1430 1430 1440 1432 1434 1448 1446 1454 1456 1459 1474
1525 1525 1523 1515 1510 1508 1504 1504 1506 1507 1510 1511 1514 1515 1516 1517 1516 1514 1512 1510 1508 1507 1505 1506 1506 1508 1502 1486 1481 1479 1461 1452 1445 1436 1433 1436 1432 1434 1444 1444 1452 1456 1458 1458 1479
Wind_Speed
10 10 9 9 9 10 11 11 11 12 14 15 15 16 15 15 10 12 9 10 5 9 3 6 2 1 3 9 12 18 4 5 4 6 9 21 17 23 34 34 24 10 32 32 31
11 10 10 10 10 10 11 11 11 12 13 13 14 14 15 15 14 13 10 11 13 8 3 5 1 5 5 9 5 7 3 6 6 16 7 18 19 20 20 29 29 31 32 31 31
12 11 11 11 10 10 10 11 11 12 12 12 12 11 12 13 13 8 9 11 12 6 4 5 1 1 9 8 8 8 7 7 21 30 32 19 17 8 21 20 32 34 32 30 31
12 12 12 11 11 10 10 11 10 11 11 11 10 8 8 7 3 5 4 9 12 4 6 2 5 2 2 2 5 3 18 31 21 27 6 7 11 7 24 30 36 34 32 28 30
13 13 12 12 11 10 10 10 10 10 10 8 8 6 4 4 15 14 8 7 12 9 9 11 10 3 3 5 6 5 5 9 11 13 14 22 17 12 26 35 35 32 31 27 27
14 13 12 11 11 11 10 10 10 9 9 7 5 4 3 4 2 4 8 7 11 12 9 12 18 17 10 14 3 9 7 5 11 12 22 17 14 10 23 35 33 30 30 28 24
15 14 12 10 10 10 10 10 9 9 8 6 4 4 6 14 3 8 7 9 8 11 11 12 20 21 17 7 2 2 4 8 12 7 6 21 7 6 22 31 30 28 27 27 24
15 15 13 11 10 9 9 9 9 7 5 4 3 4 6 2 9 11 9 8 12 10 17 16 20 23 9 14 11 4 8 2 7 13 12 8 4 9 16 29 29 26 27 27 26
14 14 13 11 10 9 9 8 10 7 6 3 4 5 7 7 9 7 15 12 12 13 14 19 18 16 15 7 8 2 6 4 8 18 6 4 6 20 25 27 27 28 26 29 29
14 13 12 10 9 9 12 11 9 5 8 6 1 6 4 2 7 5 2 11 14 16 17 19 11 5 6 5 7 6 6 5 4 7 18 10 8 13 27 27 25 25 27 29 30
13 12 12 9 6 11 17 12 10 4 18 10 20 12 12 13 7 6 8 7 12 15 6 12 4 8 11 14 16 15 10 6 9 9 7 18 11 19 27 26 26 28 25 30 30
11 11 11 7 6 10 11 16 10 8 9 9 6 8 8 4 7 12 5 5 8 7 10 8 11 11 16 16 18 16 8 8 7 13 10 15 18 20 22 26 32 30 27 31 34
11 11 8 5 6 7 6 11 10 11 4 6 0 1 2 6 6 9 8 12 9 6 10 9 9 15 18 17 18 17 8 5 4 6 11 3 8 19 18 25 33 34 30 34 36
9 9 8 7 6 11 6 10 11 7 2 7 5 3 5 6 9 4 6 10 5 10 10 9 15 19 19 15 15 15 18 14 13 9 8 12 7 19 22 21 23 33 31 35 35
7 8 5 7 5 11 12 11 10 7 1 4 4 2 5 6 11 3 7 3 8 9 6 9 12 15 20 20 14 14 19 16 10 11 6 11 2 7 23 22 24 29 30 34 36
6 7 3 4 5 13 12 10 7 1 2 2 8 8 8 16 15 10 3 8 6 6 12 10 23 15 14 19 21 17 18 17 14 5 6 15 8 8 19 23 22 28 34 37 35
7 6 3 3 4 11 11 9 2 3 0 5 6 8 9 9 9 3 6 8 5 4 6 10 17 18 22 18 22 18 13 8 8 5 5 14 10 16 18 22 25 29 41 43 39
7 5 3 4 5 9 9 4 4 8 11 10 8 11 9 6 4 8 9 6 10 7 9 7 11 10 17 15 13 17 10 8 10 7 6 12 7 15 15 29 44 45 46 45 44
8 8 7 1 5 4 10 3 3 7 10 8 11 7 7 12 9 4 5 6 7 10 5 5 11 23 17 18 18 23 15 14 10 13 10 7 8 17 12 13 25 36 38 43 46
9 11 14 4 3 6 3 6 4 7 9 6 7 8 9 10 10 11 7 7 9 14 12 5 8 14 19 13 21 16 16 11 8 11 14 6 4 5 7 15 14 23 41 45 47
8 6 5 10 1 8 4 6 5 11 8 5 9 7 9 8 9 10 8 10 8 11 13 8 4 15 17 6 12 15 14 14 9 7 10 6 7 10 10 2 6 21 43 45 47
8 4 10 6 4 8 5 2 1 3 4 2 0 6 7 10 5 9 12 10 13 11 7 5 5 5 21 20 18 17 13 13 11 9 4 5 16 3 6 9 10 9 46 45 50
7 13 7 5 3 4 4 1 5 1 6 6 6 7 9 8 7 7 10 17 22 6 3 6 4 6 16 8 7 5 15 19 10 6 16 5 6 3 12 10 10 20 17 27 34
6 3 5 6 11 5 5 6 7 9 6 2 2 9 8 7 5 7 11 14 22 9 13 11 3 7 10 19 17 21 24 22 21 6 11 14 15 5 12 19 12 33 34 26 11
3 5 12 4 7 9 8 8 7 7 5 4 2 7 5 5 8 9 13 10 20 7 12 1 7 10 16 19 16 18 22 20 17 16 10 11 6 5 12 9 17 19 33 29 25
7 8 18 18 18 2 5 6 10 3 7 6 6 9 8 6 6 8 9 8 5 12 9 11 8 11 17 18 18 20 25 18 16 17 9 4 4 17 27 26 31 26 22 30 30
12 18 11 12 9 8 2 2 7 8 4 3 9 6 7 9 15 17 20 21 20 15 11 7 7 6 11 13 18 11 11 19 20 19 14 7 8 19 12 19 15 17 21 16 15
Wind_Direction
343 338 334 329 323 318 316 315 313 311 307 301 294 295 299 301 305 295 281 301 314 332 3 109 38 17 227 241 229 124 115 333 261 258 68 95 84 95 123 137 150 134 138 137 136
343 340 335 330 324 319 318 317 316 312 307 304 296 291 295 300 304 285 273 274 275 308 317 156 319 294 270 246 217 94 74 230 261 286 114 107 117 127 116 107 116 124 133 138 137
346 344 341 337 332 325 322 323 320 313 307 302 301 294 289 299 315 288 250 241 263 291 127 248 292 269 256 331 254 114 149 1 276 278 283 122 89 100 120 120 132 133 143 146 147
344 344 342 342 340 335 330 331 329 321 314 304 300 304 287 283 347 67 12 233 246 220 198 264 265 61 321 282 289 185 155 171 234 239 169 92 102 81 131 135 137 142 146 153 147
345 342 341 342 345 342 339 338 337 331 325 311 301 307 291 260 254 281 308 275 249 228 210 243 266 245 240 275 290 237 170 178 178 139 112 104 81 85 121 134 141 148 149 158 156
354 349 344 340 345 347 344 343 343 342 339 324 307 310 235 257 222 293 280 262 247 248 234 246 260 268 245 262 187 240 300 308 194 145 118 114 105 106 128 136 141 156 157 164 160
359 356 352 347 343 341 342 346 345 348 349 343 326 296 247 226 148 333 280 310 285 248 251 252 266 280 298 316 250 35 17 338 359 7 96 101 24 114 140 141 146 164 167 169 161
359 359 358 352 344 343 344 348 355 347 354 4 13 334 271 292 302 272 234 258 271 270 253 279 292 299 330 298 273 146 143 42 346 7 171 131 195 231 172 148 155 178 177 174 167
354 355 360 359 352 358 351 344 347 1 14 10 31 343 284 323 284 321 251 251 258 251 263 263 279 305 305 296 288 90 251 141 172 215 266 177 145 219 180 160 164 187 183 174 170
351 352 353 356 6 24 9 346 345 43 356 327 310 314 292 324 321 304 323 247 268 265 240 252 268 281 285 271 257 246 144 146 223 182 234 178 196 181 174 170 174 198 186 173 172
353 353 355 2 34 36 34 28 10 47 332 263 291 249 317 312 315 320 296 269 257 280 286 249 246 242 248 259 260 272 276 151 198 239 158 221 170 191 183 171 177 198 195 176 174
357 357 1 20 61 36 33 35 25 333 310 292 274 271 261 319 296 294 244 246 246 247 277 289 255 244 265 267 274 280 258 274 322 199 188 222 192 186 190 186 178 197 192 180 177
353 353 4 46 27 27 23 20 7 345 284 303 310 253 182 304 276 302 282 224 238 249 249 251 267 257 252 264 274 277 241 211 155 282 218 162 177 180 194 194 179 195 195 186 180
348 352 354 349 356 342 17 355 343 338 311 195 216 160 297 247 266 229 227 252 250 227 264 244 266 273 272 251 254 270 273 268 127 115 242 232 242 188 186 200 177 191 195 188 186
335 350 10 28 18 28 347 347 335 332 98 128 124 221 280 246 279 96 135 208 264 273 243 254 272 271 271 275 261 253 271 281 217 161 271 285 212 246 178 194 180 186 190 191 193
310 333 336 314 333 359 344 334 338 328 107 120 38 358 350 342 317 294 183 188 218 277 295 287 294 275 273 277 273 275 263 274 287 148 239 267 249 261 179 186 182 183 190 196 197
279 299 321 294 353 0 337 335 328 246 327 41 358 345 324 291 298 20 18 320 290 276 260 256 260 278 276 280 285 276 269 262 274 276 212 226 246 256 192 178 173 186 190 192 200
283 269 232 58 14 349 347 319 252 64 41 9 3 305 272 288 322 32 359 315 327 345 311 281 280 257 255 252 259 272 254 232 244 236 259 244 247 258 186 188 176 185 189 191 196
294 256 260 137 18 359 309 305 3 25 31 358 314 334 3 349 355 346 295 18 10 38 30 320 334 319 256 272 246 267 265 260 239 261 274 260 269 266 180 173 177 188 186 188 192
310 277 258 195 208 267 281 250 324 78 34 345 323 9 350 347 344 347 341 33 6 358 9 287 308 303 307 293 277 238 253 270 248 235 251 270 260 252 257 189 184 177 179 188 190
336 300 125 160 178 250 236 262 80 102 97 357 340 335 331 328 341 333 326 332 37 341 350 320 14 308 319 306 262 282 243 250 251 226 237 263 264 208 269 249 185 180 180 184 187
314 286 171 167 235 230 243 51 96 315 54 297 40 322 344 335 337 323 311 310 339 328 323 5 275 297 290 288 288 280 278 234 237 259 261 241 252 278 141 17 248 263 181 185 189
332 280 202 161 248 286 338 196 125 163 66 21 322 359 344 321 317 268 304 320 310 278 45 345 350 335 322 323 295 288 335 328 248 184 240 239 275 271 104 42 57 13 119 170 201
327 296 179 207 235 271 1 341 341 143 144 158 31 296 293 278 316 336 324 309 318 342 10 339 256 242 269 280 298 307 317 315 312 204 231 243 254 226 148 142 277 58 31 49 43
271 324 16 317 360 357 351 340 316 313 125 85 283 301 340 359 341 316 316 336 333 344 348 286 286 307 297 290 318 309 302 301 309 298 220 244 266 236 189 128 96 77 50 7 347
350 354 336 306 319 224 267 233 278 2 35 360 339 342 356 327 347 350 350 341 304 326 338 322 305 321 313 309 318 300 305 290 292 291 261 252 355 88 94 65 69 77 86 20 351
24 4 331 299 299 298 293 42 348 13 332 21 14 6 324 11 342 319 302 288 276 277 280 273 293 325 280 314 315 301 349 360 341 305 289 207 136 110 69 94 101 91 84 55 344